Hourly Weather Roundup
Issued by NWS Central Illinois

Home | Current Version | Previous Version | Text Only | Print | Product List | Glossary On
Versions: 1 2 3 4 5 6 7 8 9 10 11 12 13 14 15 16 17 18 19 20 21 22 23 24 25 26 27 28 29 30 31 32 33 34 35 36 37 38 39 40 41 42 43 44 45 46 47 48 49 50
000
NZUS43 KILX 250810
HWRILX

AREA WEATHER ROUNDUP
NATIONAL WEATHER SERVICE, LINCOLN IL
300 AM CDT SAT OCT 25 2014


CITY           SKY/WX    TMP DP  RH WIND       PRES   REMARKS
BLOOMINGTON    MOCLDY    59  53  80 SW8       29.95F
CHAMPAIGN      PTCLDY    54  52  93 SW6       29.95S
DECATUR        MOCLDY    61  53  75 SW10      29.96S
FLORA          PTCLDY    57  53  86 SW5       29.99F
GALESBURG        N/A     48  47  97 CALM      29.94F FOG
JACKSONVILLE   NOT AVBL
LACON          MOCLDY    57  50  77 W5        29.93S
LAWRENCEVILLE  CLOUDY    54  53  97 S6        30.00F
LITCHFIELD     CLEAR     52  49  87 S3        29.98S
$$


CITY           SKY/WX    TMP DP  RH WIND       PRES   REMARKS
LINCOLN        MOCLDY    61  52  73 CALM      29.94S
MACOMB           N/A     47  47  99 W5        29.97F FOG
MATTOON        CLOUDY    60  52  74 SW8       29.95S
MT CARMEL AP   CLOUDY    61  54  77 SW3       30.00F
OLNEY-NOBLE AP CLOUDY    55  52  88 CALM      29.99F
PARIS          CLOUDY    60  54  79 SW8       29.97S
PEORIA         MOCLDY    55  49  80 SW5       29.94F
PONTIAC        MOCLDY    59  53  80 SW7       29.93F
RANTOUL        MOCLDY    58  54  84 SW8       29.95S
ROBINSON       MOCLDY    60  55  83 S8        29.99F
SPRINGFIELD    PTCLDY    57  51  80 SW3       29.96S
TAYLORVILLE    CLOUDY    59  52  77 SW7       29.97S
$$

...REGIONAL REPORTS...


CITY           SKY/WX    TMP DP  RH WIND       PRES   REMARKS
CHICAGO O`HARE CLOUDY    57  50  77 SW6       29.89S
KANKAKEE       PTCLDY    53  51  92 SW6       29.92F
MOLINE         FOG       51  50  96 W6        29.95R VSB 1/4
MOUNT VERNON   PTCLDY    55  48  76 SW3       30.01F
PITTSFIELD     PTCLDY    62  58  87 W3        29.98S
QUINCY         MOCLDY    57  56  96 SW5       29.97S FOG
ROCKFORD       MOCLDY    56  54  93 W7        29.95R FOG
$$


CITY           SKY/WX    TMP DP  RH WIND       PRES   REMARKS
BURLINGTON     FOG       54  54 100 W3        29.94F VSB 1/4
CEDAR RAPIDS   FOG       52  52 100 NW6       29.96R VSB 1/4
DES MOINES     CLEAR     53  51  93 CALM      30.00R FOG
KIRKSVILLE     FOG       53  53 100 SW5       29.99S VSB 1/4
OTTUMWA        FOG       53  52  96 W7        29.98R VSB 1/4
ST LOUIS       PTCLDY    63  57  81 W6        29.98S
$$


CITY           SKY/WX    TMP DP  RH WIND       PRES   REMARKS
TERRE HAUTE    CLOUDY    57  53  86 S5        29.98F
EVANSVILLE     CLOUDY    56  53  90 SW5       30.03F
INDIANAPOLIS   MOCLDY    51  48  89 S5        29.97F
LAFAYETTE      CLOUDY    56  52  86 S5        29.94F
MADISON        CLOUDY    59  55  87 W8G16     29.89S
MILWAUKEE      MOCLDY    55  49  80 W7        29.87S
$$





USA.gov is the U.S. government's official web portal to all federal, state and local government web resources and services.